Miscellaneous Local Product
Issued by NWS Hastings, NE

Home | Current Version | Previous Version | Graphics & Text | Print | Product List | Glossary On
Versions: 1 2 3 4 5 6 7 8 9 10 11 12 13 14 15 16 17 18 19 20 21 22 23 24 25 26 27 28 29 30 31 32 33 34 35 36 37 38 39 40 41 42 43 44 45 46 47 48 49 50
000
AXUS43 KGID 281002
MISGRI

GID CWA HOURLY WEATHER ROUNDUP
NATIONAL WEATHER SERVICE HASTINGS NE
500 AM CDT SAT MAY 28 2016

NOTE: "FAIR" INDICATES FEW OR NO CLOUDS BELOW 12,000 FEET WITH NO
SIGNIFICANT WEATHER AND/OR OBSTRUCTIONS TO VISIBILITY.

...SOUTH CENTRAL NEBRASKA...

CITY           SKY/WX    TMP DP  RH WIND       PRES   REMARKS
GRAND ISLAND   PTCLDY    55  53  93 W7        29.75F
HASTINGS       CLOUDY    56  53  90 N6        29.75F
KEARNEY        CLOUDY    55  54  94 NW7       29.77S
ORD            RAIN      56  54  93 W13       29.77R
YORK           CLOUDY    57  55  94 W8        29.75F
AURORA         CLOUDY    57  56  97 W7        29.75F
LEXINGTON      CLOUDY    55  53  94 W6        29.81S
HOLDREGE       CLOUDY    56  54  93 N5        29.78R
HEBRON         MOCLDY    57  56  97 CALM      29.76S

...NEBRASKA PANHANDLE...

CITY           SKY/WX    TMP DP  RH WIND       PRES   REMARKS
CHADRON        CLEAR     41  39  93 CALM      29.89R
ALLIANCE       CLEAR     37  37 100 CALM      29.89R
SCOTTSBLUFF    CLEAR     41  39  93 N6        29.91S
SIDNEY         CLEAR     39  38  96 W7        29.92R WCI  34

...WESTERN AND NORTH CENTRAL NEBRASKA...

CITY           SKY/WX    TMP DP  RH WIND       PRES   REMARKS
VALENTINE      MOCLDY    52  49  89 NW9       29.83R
AINSWORTH      CLOUDY    54  52  92 W6        29.81S
ONEILL         RAIN      57  56  96 W3        29.77F
BROKEN BOW     LGT RAIN  55  54  96 W9        29.81R
IMPERIAL       CLEAR     49  46  90 MISG      29.88R
NORTH PLATTE   PTCLDY    50  49  96 NW3       29.85R
MCCOOK         CLOUDY    54  52  93 N7        29.83R

...EASTERN NEBRASKA...

CITY           SKY/WX    TMP DP  RH WIND       PRES   REMARKS
NORFOLK        LGT RAIN  59  55  87 N6        29.70S
SO SIOUX CITY  CLOUDY    64  61  90 E6        29.69R
TEKAMAH        CLOUDY    61  59  93 S8        29.72R
COLUMBUS       CLOUDY    59  50  72 SW6       29.75R
ALBION         RAIN      56  55  94 W12       29.73R
OMAHA EPPLEY   CLOUDY    63  59  87 S10       29.73R
OFFUTT AFB     CLOUDY    61  61 100 S5        29.73R
MILLARD        CLOUDY    62  60  92 CALM      29.73R
LINCOLN        CLOUDY    58  56  93 W3        29.75S
NEBRASKA CITY  CLOUDY    59  59 100 S6        29.75R
BEATRICE       CLOUDY    58  57  96 CALM      29.75R
FALLS CITY     CLOUDY    59  57  93 SE7       29.73S

...NORTHERN KANSAS...

CITY           SKY/WX    TMP DP  RH WIND       PRES   REMARKS
GOODLAND       CLEAR     47  44  90 W13       29.89R
HILL CITY      PTCLDY    54  50  86 NW8       29.80S
NORTON         SUNNY     54  50  87 W8        29.80R
PHILLIPSBURG   CLOUDY    57  57 100 W12G17    29.78R
SMITH CENTER   MOCLDY    54  54 100 SW3       29.78R
BELOIT         CLOUDY    57  55  94 NW5       29.75S
HAYS           PTCLDY    54  46  76 W5        29.80R
RUSSELL        PTCLDY    54  54 100 W6        29.77S
CONCORDIA      CLOUDY    58  56  93 NW7       29.74F
SALINA         MOCLDY    60  58  92 CALM      29.75R
TOPEKA         CLOUDY    60  58  92 E7        29.75S



USA.gov is the U.S. government's official web portal to all federal, state and local government web resources and services.